Weather History for Sparta, IL

Change the Weather History Date:

Monday, March 24, 2014

  Actual Average (KBLV) Record (KBLV)
Temperature  
Mean Temperature 32 °F -  
Max Temperature 41 °F 56 °F 82 °F (1967)
Min Temperature 23 °F 35 °F -2 °F (1974)
Degree Days  
Heating Degree Days 33    
Moisture  
Dew Point 21 °F    
Average Humidity 69    
Maximum Humidity 100    
Minimum Humidity 38    
Precipitation  
Precipitation 0.00 in - - ()
Sea Level Pressure  
Sea Level Pressure 30.29 in    
Wind  
Wind Speed 3 mph (NE)    
Max Wind Speed 14 mph    
Max Gust Speed 17 mph    
Visibility 9 miles    
Events Snow    
Averages and records for this station are not official NWS values.
T = Trace of Precipitation, MM = Missing Value Source: NWS Daily Summary

Daily Weather History Graph

Daily Weather History Graph

Search for Another Location

Airport:

Trip Planner

Search our weather history database for the weather conditions in past years. The results will help you decide how hot, cold, wet, or windy it might be!

Date:

Astronomy

Mar. 24, 2014 Rise Set
Actual Time 6:56 AM CDT 7:14 PM CDT
Civil Twilight 6:29 AM CDT 7:40 PM CDT
Nautical Twilight 5:58 AM CDT 8:11 PM CDT
Astronomical Twilight 5:27 AM CDT 8:43 PM CDT
Moon 2:21 AM CDT (3/24) 12:44 PM CDT (3/24)
Length of Visible Light 13h 11m
Length of Day
12h 18m
Last Quarter, 43% of the Moon is Illuminated
Mar 24
Last Quarter
Mar 30
New
Apr 7
First Quarter
Apr 15
Full
Apr 22
Last Quarter

Hourly Weather History & Observations

Time (CDT) Temp. Windchill Dew Point Humidity Pressure Visibility Wind Dir Wind Speed Gust Speed Precip Events Conditions
12:15 AM 28.4 °F 23.3 °F 17.6 °F 64% 30.37 in 10.0 mi ENE 4.6 mph - N/A   Clear
12:35 AM 28.4 °F - 17.6 °F 64% 30.37 in 10.0 mi Calm Calm - N/A   Clear
12:55 AM 28.4 °F - 17.6 °F 64% 30.37 in 10.0 mi Calm Calm - N/A   Clear
1:15 AM 28.4 °F - 15.8 °F 59% 30.37 in 10.0 mi Calm Calm - N/A   Clear
1:35 AM 28.4 °F - 15.8 °F 59% 30.37 in 10.0 mi Calm Calm - N/A   Clear
1:55 AM 28.4 °F - 15.8 °F 59% 30.38 in 10.0 mi Calm Calm - N/A   Clear
2:15 AM 26.6 °F 22.6 °F 17.6 °F 69% 30.38 in 10.0 mi North 3.5 mph - N/A   Clear
2:35 AM 26.6 °F - 15.8 °F 64% 30.37 in 10.0 mi Calm Calm - N/A   Clear
2:55 AM 24.8 °F 20.5 °F 15.8 °F 69% 30.37 in 10.0 mi NE 3.5 mph - N/A   Clear
3:15 AM 24.8 °F 20.5 °F 17.6 °F 74% 30.36 in 10.0 mi NE 3.5 mph - N/A   Clear
3:35 AM 24.8 °F 17.9 °F 15.8 °F 69% 30.35 in 10.0 mi NNE 5.8 mph - N/A   Clear
3:55 AM 23.0 °F 15.8 °F 15.8 °F 74% 30.35 in 10.0 mi NE 5.8 mph - N/A   Clear
4:15 AM 23.0 °F 15.8 °F 15.8 °F 74% 30.34 in 10.0 mi NE 5.8 mph - N/A   Clear
4:35 AM 24.8 °F 17.9 °F 15.8 °F 69% 30.34 in 10.0 mi NE 5.8 mph - N/A   Clear
4:55 AM 24.8 °F 20.5 °F 15.8 °F 69% 30.34 in 10.0 mi ENE 3.5 mph - N/A   Clear
5:15 AM 26.6 °F 19.1 °F 17.6 °F 69% 30.34 in 10.0 mi ENE 6.9 mph - N/A   Clear
5:35 AM 26.6 °F 20.0 °F 17.6 °F 69% 30.34 in 10.0 mi ENE 5.8 mph - N/A   Clear
5:55 AM 24.8 °F 19.1 °F 17.6 °F 74% 30.34 in 10.0 mi ENE 4.6 mph - N/A   Clear
6:15 AM 24.8 °F 20.5 °F 17.6 °F 74% 30.36 in 10.0 mi ENE 3.5 mph - N/A   Clear
6:35 AM 23.0 °F - 17.6 °F 80% 30.37 in 10.0 mi Calm Calm - N/A   Clear
6:55 AM 23.0 °F - 17.6 °F 80% 30.37 in 10.0 mi Calm Calm - N/A   Clear
7:15 AM 23.0 °F - 17.6 °F 80% 30.37 in 10.0 mi Calm Calm - N/A   Scattered Clouds
7:35 AM 26.6 °F - 17.6 °F 69% 30.37 in 10.0 mi Calm Calm - N/A   Scattered Clouds
7:55 AM 26.6 °F 22.6 °F 19.4 °F 74% 30.38 in 10.0 mi NE 3.5 mph - N/A   Scattered Clouds
8:15 AM 28.4 °F 22.2 °F 19.4 °F 69% 30.37 in 10.0 mi ESE 5.8 mph - N/A   Scattered Clouds
8:35 AM 28.4 °F 21.2 °F 21.2 °F 74% 30.37 in 10.0 mi East 6.9 mph - N/A   Scattered Clouds
8:55 AM 30.2 °F 24.3 °F 19.4 °F 64% 30.37 in 10.0 mi East 5.8 mph - N/A   Clear
9:15 AM 30.2 °F 25.4 °F 21.2 °F 69% 30.37 in 10.0 mi East 4.6 mph - N/A   Clear
9:35 AM 32.0 °F 25.6 °F 19.4 °F 60% 30.36 in 10.0 mi ESE 6.9 mph - N/A   Clear
9:55 AM 32.0 °F 26.4 °F 19.4 °F 60% 30.36 in 10.0 mi ESE 5.8 mph - N/A   Clear
10:15 AM 32.0 °F - 17.6 °F 55% 30.36 in 10.0 mi Calm Calm - N/A   Clear
10:35 AM 32.0 °F - 19.4 °F 60% 30.35 in 10.0 mi Calm Calm - N/A   Clear
10:55 AM 33.8 °F 30.8 °F 17.6 °F 52% 30.35 in 10.0 mi ENE 3.5 mph - N/A   Clear
11:15 AM 33.8 °F 27.7 °F 15.8 °F 48% 30.34 in 10.0 mi ENE 6.9 mph - N/A   Clear
11:35 AM 35.6 °F 29.9 °F 17.6 °F 48% 30.34 in 10.0 mi East 6.9 mph - N/A   Clear
11:55 AM 35.6 °F 30.7 °F 17.6 °F 48% 30.33 in 10.0 mi East 5.8 mph - N/A   Clear
12:15 PM 35.6 °F - 15.8 °F 44% 30.32 in 10.0 mi Calm Calm - N/A   Clear
12:35 PM 35.6 °F 30.7 °F 17.6 °F 48% 30.31 in 10.0 mi ESE 5.8 mph - N/A   Clear
1:15 PM 37.4 °F 34.9 °F 14.0 °F 38% 30.29 in 10.0 mi SE 3.5 mph - N/A   Scattered Clouds
1:35 PM 37.4 °F - 14.0 °F 38% 30.28 in 10.0 mi Calm Calm - N/A   Mostly Cloudy
1:55 PM 37.4 °F 34.9 °F 15.8 °F 41% 30.27 in 10.0 mi NE 3.5 mph - N/A   Mostly Cloudy
2:15 PM 37.4 °F - 15.8 °F 41% 30.26 in 10.0 mi Calm Calm - N/A   Mostly Cloudy
2:35 PM 37.4 °F - 17.6 °F 45% 30.25 in 10.0 mi Calm Calm - N/A   Mostly Cloudy
2:55 PM 39.2 °F 37.0 °F 17.6 °F 42% 30.24 in 10.0 mi North 3.5 mph - N/A   Mostly Cloudy
3:15 PM 39.2 °F 37.0 °F 17.6 °F 42% 30.23 in 10.0 mi NW 3.5 mph - N/A   Overcast
3:35 PM 39.2 °F - 17.6 °F 42% 30.22 in 10.0 mi Calm Calm - N/A   Mostly Cloudy
3:55 PM 41.0 °F 37.1 °F 19.4 °F 42% 30.21 in 10.0 mi North 5.8 mph - N/A   Mostly Cloudy
4:15 PM 39.2 °F 35.9 °F 19.4 °F 45% 30.21 in 10.0 mi NNE 4.6 mph - N/A   Mostly Cloudy
4:35 PM 39.2 °F 31.2 °F 19.4 °F 45% 30.21 in 10.0 mi North 13.8 mph - N/A   Mostly Cloudy
4:55 PM 35.6 °F 28.0 °F 23.0 °F 60% 30.21 in 10.0 mi North 10.4 mph - N/A   Overcast
5:15 PM 33.8 °F 25.3 °F 23.0 °F 65% 30.21 in 10.0 mi North 11.5 mph 17.3 mph N/A   Overcast
5:35 PM 32.0 °F 23.0 °F 28.4 °F 87% 30.22 in 10.0 mi North 11.5 mph - N/A Snow Light Snow
5:55 PM 32.0 °F 24.8 °F 28.4 °F 87% 30.22 in 5.0 mi North 8.1 mph - N/A Snow Light Snow
6:15 PM 32.0 °F 25.6 °F 30.2 °F 93% 30.22 in 4.0 mi North 6.9 mph - N/A   Overcast
6:35 PM 32.0 °F 26.4 °F 30.2 °F 93% 30.22 in 5.0 mi North 5.8 mph - N/A   Overcast
6:55 PM 32.0 °F 27.5 °F 30.2 °F 93% 30.22 in 4.0 mi North 4.6 mph - N/A   Overcast
7:15 PM 32.0 °F 28.7 °F 30.2 °F 93% 30.21 in 7.0 mi North 3.5 mph - N/A   Overcast
7:35 PM 32.0 °F 28.7 °F 30.2 °F 93% 30.21 in 5.0 mi North 3.5 mph - N/A   Overcast
7:55 PM 32.0 °F 27.5 °F 30.2 °F 93% 30.21 in 5.0 mi North 4.6 mph - N/A Snow Light Snow
8:15 PM 32.0 °F - 30.2 °F 93% 30.22 in 7.0 mi Calm Calm - N/A Snow Light Snow
8:35 PM 32.0 °F - 30.2 °F 93% 30.22 in 5.0 mi Calm Calm - N/A Snow Light Snow
8:55 PM 32.0 °F - 30.2 °F 93% 30.21 in 3.0 mi Calm Calm - N/A Snow Light Snow
9:15 PM 32.0 °F - 30.2 °F 93% 30.21 in 3.0 mi Calm Calm - N/A Snow Light Snow
9:35 PM 32.0 °F - 30.2 °F 93% 30.21 in 2.5 mi Calm Calm - N/A Snow Light Snow
9:55 PM 30.2 °F - 30.2 °F 100% 30.20 in 7.0 mi Calm Calm - N/A   Overcast
10:15 PM 30.2 °F - 30.2 °F 100% 30.20 in 7.0 mi Calm Calm - N/A   Overcast
10:35 PM 32.0 °F - 30.2 °F 93% 30.20 in 10.0 mi Calm Calm - N/A   Overcast
10:55 PM 32.0 °F - 30.2 °F 93% 30.20 in 10.0 mi Calm Calm - N/A   Overcast
11:15 PM 32.0 °F 28.7 °F 30.2 °F 93% 30.19 in 7.0 mi SW 3.5 mph - N/A Snow Light Snow
11:35 PM 32.0 °F - 30.2 °F 93% 30.18 in 7.0 mi Calm Calm - N/A   Overcast
11:55 PM 32.0 °F - 30.2 °F 93% 30.18 in 7.0 mi Calm Calm - N/A   Overcast